This demonstration page uses our WeatherBlox Daily Observations layout. Learn more.

Left ArrowRight Arrow

39.12711, -84.51439

Hourly Observations for January 30, 2018

Temp ( °F °C ) Dew Point ( °F °C ) Humidity (%) Winds ( mph kmh ) Pressure ( in mb ) Visibility ( mi km ) Precip ( " mm )
12:25 am 00:25 Cloudy 29 -1.7 19 -7.2 66 66 NNW 12 19 30.42 1030 10 16 N/A
12:53 am 00:53 Cloudy 29 -1.7 19 -7.2 66 66 NNW 13 20 30.39 1029 10 16 N/A
1:53 am 01:53 Cloudy 28 -2.2 16 -8.9 60 60 NW 14 22 30.40 1030 10 16 N/A
2:53 am 02:53 Cloudy 27 -2.8 14 -10 58 58 NNW 13 20 30.42 1030 10 16 N/A
3:53 am 03:53 Cloudy 27 -2.8 15 -9.4 61 61 N 8 13 30.43 1030 10 16 N/A
4:53 am 04:53 Cloudy 27 -2.8 16 -8.9 63 63 N 6 9 30.43 1031 10 16 N/A
5:06 am 05:06 Cloudy 27 -2.8 16 -8.9 63 63 N 6 9 30.45 1031 10 16 N/A
5:53 am 05:53 Cloudy 27 -2.8 18 -7.8 69 69 NNW 8 13 30.44 1031 10 16 N/A
6:53 am 06:53 Cloudy 26 -3.3 18 -7.8 71 71 N 9 15 30.46 1032 10 16 N/A
7:53 am 07:53 Cloudy 26 -3.3 18 -7.8 71 71 N 8 13 30.48 1032 10 16 N/A
8:53 am 08:53 Mostly Cloudy 26 -3.3 17 -8.3 69 69 N 8 13 30.51 1033 10 16 N/A
9:53 am 09:53 Cloudy 27 -2.8 15 -9.4 61 61 NE 10 17 30.51 1033 10 16 N/A
10:53 am 10:53 Cloudy 27 -2.8 13 -10.6 55 55 VRB 5 7 30.55 1035 10 16 N/A
11:53 am 11:53 Cloudy 29 -1.7 14 -10 54 54 NNE 10 17 30.54 1034 10 16 N/A
12:53 pm 12:53 Partly Cloudy 30 -1.1 13 -10.6 49 49 VRB 3 6 30.50 1033 10 16 N/A
1:53 pm 13:53 Mostly Cloudy 30 -1.1 13 -10.6 49 49 WSW 7 11 30.46 1032 10 16 N/A
2:53 pm 14:53 Mostly Cloudy 31 -0.6 13 -10.6 47 47 SSE 7 11 30.45 1031 10 16 N/A
3:53 pm 15:53 Partly Cloudy 33 0.6 13 -10.6 43 43 N 3 6 30.44 1031 10 16 N/A
4:53 pm 16:53 Mostly Sunny 32 undefined 13 -10.6 45 45 WNW 6 9 30.43 1030 10 16 N/A
5:53 pm 17:53 Sunny 31 -0.6 13 -10.6 47 47 S 3 6 30.41 1030 10 16 N/A
6:53 pm 18:53 Clear 27 -2.8 16 -8.9 63 63 N N/A 30.41 1030 10 16 N/A
7:53 pm 19:53 Clear 27 -2.8 18 -7.8 69 69 SSW 3 6 30.38 1029 10 16 N/A
8:53 pm 20:53 Clear 27 -2.8 15 -9.4 61 61 SW 3 6 30.37 1029 10 16 N/A
9:53 pm 21:53 Clear 24 -4.4 17 -8.3 75 75 SSW 5 7 30.38 1029 10 16 N/A
10:53 pm 22:53 Clear 26 -3.3 16 -8.9 66 66 N N/A 30.35 1028 10 16 N/A
11:53 pm 23:53 Clear 27 -2.8 16 -8.9 63 63 SSW 6 9 30.32 1027 10 16 N/A

Powered by AerisWeather